Погода в Собинке

Россия / Владимирская область     55°59′37″N   40°01′04″E
темп.,
°C
ветер,
м/с
пор.,
м/с
влажн.,
%
обл.,
%
осадки,
мм/ч
давл.,
гПа
погр.,
м
5 марта, пт
пт500:00−7ссз2296100 0.1 100174
03:00−8сз2295100 0.1 100328
06:00−9зсз239688 0.1 100439
09:00−8з369469 0.1 1006219
12:00−3зсз478496 0.0 1006834
15:00−3зсз587489 0.5 10081355
18:00−7зсз368289 0.3 1010106
21:00−10сз338864 0.3 101359
6 марта, сб
сб600:00−14сз11940 0.0 101420
03:00−14зюз12943 0.0 101620
06:00−14з22940 0.0 101520
09:00−11з23930 0.0 1016133
12:00−6сз248661 0.1 1016610
15:00−5ссз248581 0.5 1015570
18:00−9с128991 0.3 101421
21:00−13юз129050 0.3 101421
7 марта, вс
вс700:00−13юз33940 0.0 101242
03:00−13ююз49930 0.0 1009183
06:00−10ююз6138867 0.0 1005486
09:00−7ююз7139384 0.6 1002748
12:00−5ююз81492100 1.0 9971087
15:00−4ююз71394100 2.9 9921024
18:00−3зюз4997100 3.4 989661
21:00−6з71579100 4.1 9911064
8 марта, пн
пн800:00−8з5139372 0.1 992526
03:00−8зюз4128979 0.1 993421
06:00−9зюз379687 0.1 992219
09:00−9зсз498193 0.3 994438
12:00−7зсз598663 0.0 996745
15:00−7зсз599081 0.4 998794
18:00−7сз51091100 0.4 1001731
21:00−10сз5119098 0.6 1004545
9 марта, вт
вт900:00−13сз4109381 0.0 1006299
03:00−14сз4109385 0.0 1009364
06:00−15сз4993100 0.0 1011366
09:00−17ссз489399 0.1 1013358
12:00−15сз468898 0.0 1015517
15:00−13сз468598 0.0 1016626
18:00−16сз339185 0.0 101658
21:00−20сз239448 0.0 101822